DW9711 Weather Reports


Display with metric or nautical units.
time (UTC)temp
F
wind
direction
speed
MPH
gust
MPH
rain 1hr
in
rain 24hr
in
rain mn
in
humidity
%
barometer
mb
20260906000518 92 318 0.0 0.0 0.00 0.00 0.00 57 1008.2
20260906000018 93 318 0.0 0.0 0.00 0.00 0.00 57 1008.3
20260905235517 93 318 0.0 0.0 0.00 0.00 0.00 58 1008.4
20260905235018 93 318 0.0 0.0 0.00 0.00 0.00 60 1008.4
20260905234519 93 318 0.0 0.0 0.00 0.00 0.00 55 1008.4
20260905234017 94 318 0.0 0.0 0.00 0.00 0.00 55 1008.4
20260905233517 94 318 0.0 0.0 0.00 0.00 0.00 56 1008.4
20260905233017 94 318 0.0 0.0 0.00 0.00 0.00 54 1008.4
20260905232517 95 318 0.0 0.0 0.00 0.00 0.00 54 1008.3
20260905232017 95 318 0.0 0.0 0.00 0.00 0.00 54 1008.3
20260905231520 96 318 0.0 0.0 0.00 0.00 0.00 54 1008.3
20260905231017 96 318 0.0 0.0 0.00 0.00 0.00 52 1008.4
20260905230516 97 318 0.0 1.0 0.00 0.00 0.00 51 1008.4
20260905230016 97 318 0.0 2.0 0.00 0.00 0.00 51 1008.3
20260905225515 98 319 0.0 2.0 0.00 0.00 0.00 51 1008.3
20260905225019 98 319 0.0 2.0 0.00 0.00 0.00 51 1008.2
20260905224534 99 319 0.0 2.0 0.00 0.00 0.00 49 1008.3
20260905224015 99 318 0.0 3.0 0.00 0.00 0.00 48 1008.2
20260905223515 99 318 0.0 3.0 0.00 0.00 0.00 50 1008.2
20260905223020 99 318 0.0 2.0 0.00 0.00 0.00 47 1008.2
20260905222515 99 318 0.0 4.0 0.00 0.00 0.00 48 1008.2
20260905222014 99 320 0.0 2.0 0.00 0.00 0.00 47 1008.3
20260905221514 99 321 0.0 3.0 0.00 0.00 0.00 48 1008.3
20260905221014 99 320 0.0 5.0 0.00 0.00 0.00 49 1008.3
20260905220512 100 321 1.0 5.0 0.00 0.00 0.00 46 1008.5
20260905220012 100 321 2.0 5.0 0.00 0.00 0.00 45 1008.4
20260905215514 101 278 1.0 3.0 0.00 0.00 0.00 45 1008.4
20260905215014 101 277 0.0 3.0 0.00 0.00 0.00 44 1008.4
20260905214511 100 278 0.0 2.0 0.00 0.00 0.00 45 1008.4
20260905214011 101 278 0.0 2.0 0.00 0.00 0.00 44 1008.5
20260905213511 100 278 0.0 4.0 0.00 0.00 0.00 43 1008.5
20260905213011 100 278 0.0 4.0 0.00 0.00 0.00 44 1008.5
20260905212512 100 265 0.0 2.0 0.00 0.00 0.00 45 1008.5
20260905212011 100 265 0.0 2.0 0.00 0.00 0.00 44 1008.5
20260905211528 100 265 0.0 0.0 0.00 0.00 0.00 47 1008.6
20260905211009 100 265 0.0 1.0 0.00 0.00 0.00 47 1008.7
20260905210508 100 265 0.0 2.0 0.00 0.00 0.00 44 1008.7
20260905210016 100 265 0.0 2.0 0.00 0.00 0.00 42 1008.7
20260905205507 100 265 0.0 2.0 0.00 0.00 0.00 45 1008.7
20260905205007 100 265 0.0 4.0 0.00 0.00 0.00 43 1008.7
20260905204505 100 265 0.0 4.0 0.00 0.00 0.00 45 1008.7
20260905204005 100 248 0.0 3.0 0.00 0.00 0.00 46 1008.8
20260905203504 99 248 0.0 4.0 0.00 0.00 0.00 44 1009.0
20260905203004 99 322 0.0 4.0 0.00 0.00 0.00 46 1008.9
20260905202503 99 355 0.0 3.0 0.00 0.00 0.00 46 1009.0
20260905202003 99 355 0.0 5.0 0.00 0.00 0.00 47 1009.1
20260905201503 99 335 1.0 5.0 0.00 0.00 0.00 48 1009.0
20260905201002 99 317 1.0 5.0 0.00 0.00 0.00 47 1009.2
20260905200600 99 281 1.0 5.0 0.00 0.00 0.00 44 1009.2
20260905200104 100 295 1.0 5.0 0.00 0.00 0.00 47 1009.4
20260905195600 100 9 0.0 3.0 0.00 0.00 0.00 46 1009.4
20260905195057 99 9 0.0 2.0 0.00 0.00 0.00 48 1009.6
20260905194557 99 10 0.0 2.0 0.00 0.00 0.00 45 1009.7
20260905194056 99 92 0.0 1.0 0.00 0.00 0.00 47 1009.8
20260905193555 99 98 0.0 0.0 0.00 0.00 0.00 47 1009.9
20260905193055 99 98 0.0 5.0 0.00 0.00 0.00 45 1009.9
20260905192553 99 348 2.0 5.0 0.00 0.00 0.00 47 1010.0
20260905192053 99 53 0.0 4.0 0.00 0.00 0.00 48 1010.0
20260905191557 99 23 0.0 4.0 0.00 0.00 0.00 48 1010.1
20260905191051 99 340 0.0 3.0 0.00 0.00 0.00 48 1010.2
20260905190549 98 321 0.0 0.0 0.00 0.00 0.00 47 1010.3
20260905190049 98 321 0.0 0.0 0.00 0.00 0.00 47 1010.4
20260905185548 98 322 0.0 0.0 0.00 0.00 0.00 48 1010.4
20260905185051 98 351 0.0 0.0 0.00 0.00 0.00 49 1010.5
20260905184556 97 324 0.0 0.0 0.00 0.00 0.00 51 1010.4
20260905184047 97 323 0.0 0.0 0.00 0.00 0.00 50 1010.5
20260905183546 97 337 0.0 0.0 0.00 0.00 0.00 55 1010.5
20260905183045 97 341 0.0 2.0 0.00 0.00 0.00 53 1010.6
20260905182545 98 341 0.0 4.0 0.00 0.00 0.00 52 1010.6
20260905182045 98 342 0.0 4.0 0.00 0.00 0.00 52 1010.8
20260905181543 98 315 0.0 3.0 0.00 0.00 0.00 50 1010.8
20260905181041 98 315 0.0 3.0 0.00 0.00 0.00 49 1010.8
20260905180541 98 62 0.0 2.0 0.00 0.00 0.00 50 1010.9
20260905180043 97 67 0.0 3.0 0.00 0.00 0.00 51 1010.9
20260905175538 97 9 0.0 0.0 0.00 0.00 0.00 50 1011.0
20260905175038 97 9 0.0 1.0 0.00 0.00 0.00 52 1011.0
20260905174538 96 5 0.0 4.0 0.00 0.00 0.00 50 1011.1
20260905174035 96 307 1.0 4.0 0.00 0.00 0.00 50 1011.0
20260905173535 96 292 0.0 0.0 0.00 0.00 0.00 50 1011.1
20260905173043 96 292 0.0 1.0 0.00 0.00 0.00 50 1011.1
20260905172535 96 307 0.0 1.0 0.00 0.00 0.00 51 1011.2
20260905172032 96 312 0.0 0.0 0.00 0.00 0.00 53 1011.3
20260905171531 95 310 0.0 4.0 0.00 0.00 0.00 53 1011.3
20260905171030 95 308 0.0 5.0 0.00 0.00 0.00 50 1011.3
20260905170529 95 309 2.0 5.0 0.00 0.00 0.00 49 1011.3
20260905170029 95 312 0.0 0.0 0.00 0.00 0.00 55 1011.3
20260905165527 95 312 0.0 0.0 0.00 0.00 0.00 54 1011.4
20260905165028 95 315 0.0 1.0 0.00 0.00 0.00 55 1011.4
20260905164530 95 317 0.0 3.0 0.00 0.00 0.00 54 1011.5
20260905164025 95 318 1.0 3.0 0.00 0.00 0.00 56 1011.5
20260905163528 95 277 0.0 3.0 0.00 0.00 0.00 55 1011.6
20260905163026 94 236 0.0 4.0 0.00 0.00 0.00 55 1011.7
20260905162523 94 229 0.0 4.0 0.00 0.00 0.00 56 1011.8
20260905162022 94 211 0.0 4.0 0.00 0.00 0.00 56 1011.8
20260905161521 94 211 1.0 4.0 0.00 0.00 0.00 56 1011.9
20260905161019 93 300 0.0 5.0 0.00 0.00 0.00 59 1011.9
20260905160518 93 301 1.0 5.0 0.00 0.00 0.00 61 1011.9
20260905160017 92 317 0.0 3.0 0.00 0.00 0.00 60 1012.0
20260905155517 92 317 0.0 3.0 0.00 0.00 0.00 61 1012.0
20260905155015 93 316 0.0 2.0 0.00 0.00 0.00 61 1012.0
20260905154516 92 316 0.0 3.0 0.00 0.00 0.00 62 1012.0
20260905154018 92 316 0.0 3.0 0.00 0.00 0.00 62 1012.0
20260905153514 92 316 0.0 3.0 0.00 0.00 0.00 63 1012.0
20260905153017 92 316 0.0 2.0 0.00 0.00 0.00 63 1012.1
20260905152511 91 316 0.0 4.0 0.00 0.00 0.00 66 1012.1
20260905152011 91 107 0.0 2.0 0.00 0.00 0.00 63 1012.1
20260905151517 91 119 0.0 2.0 0.00 0.00 0.00 65 1012.1
20260905151006 91 111 0.0 2.0 0.00 0.00 0.00 64 1012.1
20260905150504 91 61 0.0 0.0 0.00 0.00 0.00 69 1012.1
20260905150003 91 61 0.0 0.0 0.00 0.00 0.00 68 1012.1
20260905145502 90 61 0.0 0.0 0.00 0.00 0.00 70 1012.1
20260905145102 90 61 0.0 0.0 0.00 0.00 0.00 70 1012.1
20260905144559 89 61 0.0 0.0 0.00 0.00 0.00 69 1012.1
20260905144057 89 61 0.0 0.0 0.00 0.00 0.00 70 1012.1
20260905054615 79 69 0.0 0.0 0.00 0.00 0.00 85 1011.2
20260905054040 80 69 0.0 0.0 0.00 0.00 0.00 84 1011.2
20260905053544 80 69 0.0 0.0 0.00 0.00 0.00 84 1011.2
20260905053043 80 69 0.0 0.0 0.00 0.00 0.00 84 1011.3
20260905052539 80 69 0.0 0.0 0.00 0.00 0.00 84 1011.3
20260905052038 80 69 0.0 0.0 0.00 0.00 0.00 83 1011.4
20260905051538 80 69 0.0 0.0 0.00 0.00 0.00 83 1011.3
20260905051037 80 69 0.0 0.0 0.00 0.00 0.00 83 1011.2
20260905050536 80 69 0.0 0.0 0.00 0.00 0.00 83 1011.3
20260905050034 80 69 0.0 0.0 0.00 0.00 0.00 83 1011.3
20260905045536 81 69 0.0 0.0 0.00 0.00 0.00 83 1011.2
20260905045034 81 69 0.0 0.0 0.00 0.00 0.00 83 1011.2
20260905023530 84 69 0.0 0.0 0.00 0.00 0.00 77 1011.5
20260905023031 84 69 0.0 0.0 0.00 0.00 0.00 76 1011.5
20260905022530 85 69 0.0 0.0 0.00 0.00 0.00 75 1011.5
20260905022033 85 69 0.0 0.0 0.00 0.00 0.00 75 1011.5
20260905021530 85 69 0.0 0.0 0.00 0.00 0.00 76 1011.5
20260905021029 85 69 0.0 0.0 0.00 0.00 0.00 75 1011.5
20260905020534 85 69 0.0 0.0 0.00 0.00 0.00 74 1011.4
20260905020029 85 69 0.0 0.0 0.00 0.00 0.00 73 1011.3
20260905015530 85 69 0.0 0.0 0.00 0.00 0.00 74 1011.3
20260905015030 86 69 0.0 0.0 0.00 0.00 0.00 73 1011.3
20260905014529 86 69 0.0 0.0 0.00 0.00 0.00 72 1011.3
20260905014029 86 69 0.0 0.0 0.00 0.00 0.00 72 1011.2
20260905013529 87 69 0.0 0.0 0.00 0.00 0.00 70 1011.2
20260905013029 87 69 0.0 0.0 0.00 0.00 0.00 71 1011.1
20260905012532 87 69 0.0 0.0 0.00 0.00 0.00 71 1011.0
20260905012029 87 69 0.0 0.0 0.00 0.00 0.00 70 1010.9
20260905011528 87 69 0.0 0.0 0.00 0.00 0.00 70 1011.0
20260905011028 88 69 0.0 0.0 0.00 0.00 0.00 70 1010.9
20260905010528 88 69 0.0 0.0 0.00 0.00 0.00 69 1010.8
20260905010036 88 69 0.0 0.0 0.00 0.00 0.00 70 1010.7
20260905005530 88 69 0.0 0.0 0.00 0.00 0.00 69 1010.7
20260905005027 89 69 0.0 0.0 0.00 0.00 0.00 69 1010.7
20260905004527 89 69 0.0 0.0 0.00 0.00 0.00 69 1010.7
20260905004026 90 69 0.0 0.0 0.00 0.00 0.00 69 1010.7
20260905003530 90 69 0.0 0.0 0.00 0.00 0.00 69 1010.7
20260905003027 90 69 0.0 0.0 0.00 0.00 0.00 68 1010.7
20260905002528 91 69 0.0 0.0 0.00 0.00 0.00 66 1010.7
20260905002026 91 69 0.0 0.0 0.00 0.00 0.00 67 1010.6
20260905001525 92 69 0.0 0.0 0.00 0.00 0.00 64 1010.7
20260905001025 92 69 0.0 0.0 0.00 0.00 0.00 64 1010.6